Time,TemperatureF,DewpointF,PressureIn,WindDirection,WindDirectionDegrees,WindSpeedMPH,WindSpeedGustMPH,Humidity,HourlyPrecipIn,Conditions,Clouds,dailyrainin,SoftwareType,DateUTC
2013-02-06 00:02:00,29.0,28.0,-100.00,SW,234,2.0,8.0,95,0.00,,,-99.99,,2013-02-06 05:02:00,
2013-02-06 00:12:00,28.0,28.0,-100.00,SW,218,2.0,8.0,95,0.00,,,-99.99,,2013-02-06 05:12:00,
2013-02-06 00:22:00,28.0,28.0,-100.00,WSW,241,2.0,8.0,95,0.00,,,-99.99,,2013-02-06 05:22:00,
2013-02-06 00:32:00,27.0,27.0,-100.00,SW,234,2.0,8.0,95,0.00,,,-99.99,,2013-02-06 05:32:00,
2013-02-06 00:42:00,28.0,28.0,-100.00,WSW,241,2.0,8.0,95,0.00,,,-99.99,,2013-02-06 05:42:00,
2013-02-06 00:53:00,27.0,27.0,-100.00,SW,218,3.0,8.0,95,0.00,,,-99.99,,2013-02-06 05:53:00,
2013-02-06 01:01:00,28.0,27.0,-100.00,SW,224,3.0,8.0,95,0.00,,,-99.99,,2013-02-06 06:01:00,
2013-02-06 01:11:00,29.0,28.0,-100.00,WSW,242,3.0,8.0,94,0.00,,,-99.99,,2013-02-06 06:11:00,
2013-02-06 01:22:00,28.0,27.0,-100.00,SW,220,3.0,8.0,94,0.00,,,-99.99,,2013-02-06 06:22:00,
2013-02-06 01:32:00,28.0,27.0,-100.00,SW,221,3.0,8.0,95,0.00,,,-99.99,,2013-02-06 06:32:00,
2013-02-06 01:42:00,28.0,27.0,-100.00,SE,146,2.0,8.0,94,0.00,,,-99.99,,2013-02-06 06:42:00,
2013-02-06 01:51:00,28.0,27.0,-100.00,SSW,207,2.0,8.0,94,0.00,,,-99.99,,2013-02-06 06:51:00,
2013-02-06 02:02:00,30.0,30.0,-100.00,SW,234,2.0,8.0,94,0.00,,,-99.99,,2013-02-06 07:02:00,
2013-02-06 02:11:00,29.0,28.0,-100.00,SW,223,2.0,8.0,95,0.00,,,-99.99,,2013-02-06 07:11:00,
2013-02-06 02:22:00,29.0,28.0,-100.00,SW,224,1.0,8.0,95,0.00,,,-99.99,,2013-02-06 07:22:00,
2013-02-06 02:32:00,31.0,30.0,-100.00,SW,218,1.0,8.0,94,0.00,,,-99.99,,2013-02-06 07:32:00,
2013-02-06 02:42:00,30.0,28.0,-100.00,SSW,199,2.0,8.0,94,0.00,,,-99.99,,2013-02-06 07:42:00,
2013-02-06 02:52:00,30.0,30.0,-100.00,WSW,241,2.0,8.0,94,0.00,,,-99.99,,2013-02-06 07:52:00,
2013-02-06 03:01:00,30.0,28.0,-100.00,WSW,237,2.0,8.0,94,0.00,,,-99.99,,2013-02-06 08:01:00,
2013-02-06 03:11:00,29.0,28.0,-100.00,SW,216,2.0,8.0,94,0.00,,,-99.99,,2013-02-06 08:11:00,
2013-02-06 03:21:00,30.0,30.0,-100.00,SW,223,3.0,8.0,94,0.00,,,-99.99,,2013-02-06 08:21:00,
2013-02-06 03:32:00,31.0,30.0,-100.00,SW,232,3.0,8.0,94,0.00,,,-99.99,,2013-02-06 08:32:00,
2013-02-06 03:42:00,30.0,30.0,-100.00,SW,235,1.0,8.0,93,0.00,,,-99.99,,2013-02-06 08:42:00,
2013-02-06 03:53:00,31.0,30.0,-100.00,SW,218,1.0,8.0,94,0.00,,,-99.99,,2013-02-06 08:53:00,
2013-02-06 04:02:00,30.0,30.0,-100.00,SW,221,2.0,8.0,94,0.00,,,-99.99,,2013-02-06 09:02:00,
2013-02-06 04:11:00,31.0,30.0,-100.00,WSW,238,3.0,8.0,93,0.00,,,-99.99,,2013-02-06 09:11:00,
2013-02-06 04:22:00,31.0,30.0,-100.00,SW,224,3.0,8.0,93,0.00,,,-99.99,,2013-02-06 09:22:00,
2013-02-06 04:32:00,31.0,30.0,-100.00,SSW,211,2.0,8.0,93,0.00,,,-99.99,,2013-02-06 09:32:00,
2013-02-06 04:42:00,31.0,30.0,-100.00,SSW,194,2.0,8.0,93,0.00,,,-99.99,,2013-02-06 09:42:00,
2013-02-06 04:52:00,30.0,30.0,-100.00,SSW,211,2.0,8.0,93,0.00,,,-99.99,,2013-02-06 09:52:00,
2013-02-06 05:01:00,31.0,30.0,-100.00,WSW,244,2.0,8.0,93,0.00,,,-99.99,,2013-02-06 10:01:00,
2013-02-06 05:11:00,30.0,28.0,-100.00,SW,225,3.0,8.0,91,0.00,,,-99.99,,2013-02-06 10:11:00,
2013-02-06 05:22:00,31.0,30.0,-100.00,SW,217,4.0,8.0,93,0.00,,,-99.99,,2013-02-06 10:22:00,
2013-02-06 05:32:00,31.0,30.0,-100.00,SSW,211,2.0,8.0,91,0.00,,,-99.99,,2013-02-06 10:32:00,
2013-02-06 05:42:00,31.0,30.0,-100.00,SW,232,2.0,8.0,91,0.00,,,-99.99,,2013-02-06 10:42:00,
2013-02-06 05:52:00,32.0,30.0,-100.00,WSW,242,2.0,8.0,91,0.00,,,-99.99,,2013-02-06 10:52:00,
2013-02-06 06:01:00,31.0,30.0,-100.00,SW,230,2.0,8.0,90,0.00,,,-99.99,,2013-02-06 11:01:00,
2013-02-06 06:11:00,31.0,28.0,-100.00,SW,228,2.0,2.0,90,0.00,,,-99.99,,2013-02-06 11:11:00,
2013-02-06 06:22:00,29.0,28.0,-100.00,SW,231,3.0,4.0,89,0.00,,,-99.99,,2013-02-06 11:22:00,
2013-02-06 06:32:00,30.0,28.0,-100.00,SW,216,4.0,6.0,89,0.00,,,-99.99,,2013-02-06 11:32:00,
2013-02-06 06:42:00,30.0,28.0,-100.00,WSW,240,5.0,6.0,88,0.00,,,-99.99,,2013-02-06 11:42:00,
2013-02-06 06:52:00,30.0,28.0,-100.00,SW,216,4.0,6.0,88,0.00,,,-99.99,,2013-02-06 11:52:00,
2013-02-06 07:02:00,30.0,27.0,-100.00,WSW,238,4.0,6.0,86,0.00,,,-99.99,,2013-02-06 12:02:00,
2013-02-06 07:12:00,30.0,27.0,-100.00,SW,234,2.0,6.0,86,0.00,,,-99.99,,2013-02-06 12:12:00,
2013-02-06 07:22:00,30.0,27.0,-100.00,West,265,1.0,6.0,86,0.00,,,-99.99,,2013-02-06 12:22:00,
2013-02-06 07:32:00,30.0,28.0,-100.00,SSW,213,1.0,6.0,88,0.00,,,-99.99,,2013-02-06 12:32:00,
2013-02-06 07:42:00,30.0,27.0,-100.00,SSW,213,1.0,6.0,86,0.00,,,-99.99,,2013-02-06 12:42:00,
2013-02-06 07:52:00,28.0,25.0,-100.00,SSW,213,2.0,6.0,86,0.00,,,-99.99,,2013-02-06 12:52:00,
2013-02-06 08:02:00,29.0,27.0,-100.00,West,262,3.0,6.0,85,0.00,,,-99.99,,2013-02-06 13:02:00,
2013-02-06 08:12:00,29.0,27.0,-100.00,SW,235,4.0,6.0,84,0.00,,,-99.99,,2013-02-06 13:12:00,
2013-02-06 08:22:00,29.0,25.0,-100.00,SW,223,4.0,6.0,82,0.00,,,-99.99,,2013-02-06 13:22:00,
2013-02-06 08:32:00,31.0,27.0,-100.00,SW,224,5.0,8.0,80,0.00,,,-99.99,,2013-02-06 13:32:00,
2013-02-06 08:42:00,29.0,23.0,-100.00,SW,227,4.0,8.0,77,0.00,,,-99.99,,2013-02-06 13:42:00,
2013-02-06 08:52:00,31.0,27.0,-100.00,WSW,245,6.0,8.0,78,0.00,,,-99.99,,2013-02-06 13:52:00,
2013-02-06 09:02:00,28.0,23.0,-100.00,SSE,160,2.0,8.0,78,0.00,,,-99.99,,2013-02-06 14:02:00,
2013-02-06 09:11:00,28.0,25.0,-100.00,NNW,343,2.0,8.0,80,0.55,,,-99.99,,2013-02-06 14:11:00,
2013-02-06 09:22:00,28.0,25.0,-100.00,West,271,1.0,8.0,81,0.00,,,-99.99,,2013-02-06 14:22:00,
2013-02-06 09:32:00,28.0,23.0,-100.00,North,0,1.0,8.0,81,0.55,,,-99.99,,2013-02-06 14:32:00,
2013-02-06 09:42:00,27.0,23.0,-100.00,West,275,2.0,8.0,82,1.14,,,-99.99,,2013-02-06 14:42:00,
2013-02-06 09:52:00,26.0,23.0,-100.00,WNW,293,2.0,8.0,82,0.00,,,-99.99,,2013-02-06 14:52:00,
2013-02-06 10:02:00,26.0,21.0,-100.00,West,261,2.0,8.0,82,0.55,,,-99.99,,2013-02-06 15:02:00,
2013-02-06 10:11:00,26.0,23.0,-100.00,North,357,1.0,8.0,81,0.00,,,-99.99,,2013-02-06 15:11:00,
2013-02-06 10:21:00,27.0,23.0,-100.00,North,351,1.0,8.0,81,0.00,,,-99.99,,2013-02-06 15:21:00,
2013-02-06 10:32:00,27.0,23.0,-100.00,NW,321,2.0,8.0,81,0.00,,,-99.99,,2013-02-06 15:32:00,
2013-02-06 10:42:00,27.0,23.0,-100.00,North,11,2.0,8.0,80,0.00,,,-99.99,,2013-02-06 15:42:00,
2013-02-06 10:52:00,27.0,23.0,-100.00,NW,312,2.0,8.0,78,0.00,,,-99.99,,2013-02-06 15:52:00,
2013-02-06 11:01:00,26.0,21.0,-100.00,SSW,204,1.0,8.0,77,0.00,,,-99.99,,2013-02-06 16:01:00,
2013-02-06 11:11:00,28.0,23.0,-100.00,South,190,1.0,8.0,76,0.00,,,-99.99,,2013-02-06 16:11:00,
2013-02-06 11:22:00,27.0,21.0,-100.00,North,352,1.0,8.0,73,0.00,,,-99.99,,2013-02-06 16:22:00,
2013-02-06 11:32:00,27.0,21.0,-100.00,East,101,2.0,8.0,73,0.00,,,-99.99,,2013-02-06 16:32:00,
2013-02-06 11:42:00,28.0,21.0,-100.00,NNW,345,1.0,8.0,73,2.28,,,-99.99,,2013-02-06 16:42:00,
2013-02-06 11:52:00,30.0,25.0,-100.00,NW,324,1.0,8.0,76,2.83,,,-99.99,,2013-02-06 16:52:00,
2013-02-06 12:02:00,30.0,25.0,-100.00,NW,313,1.0,8.0,76,0.00,,,-99.99,,2013-02-06 17:02:00,
2013-02-06 12:12:00,29.0,21.0,-100.00,North,355,2.0,8.0,71,0.00,,,-99.99,,2013-02-06 17:12:00,
2013-02-06 12:22:00,30.0,21.0,-100.00,ENE,63,2.0,8.0,67,1.14,,,-99.99,,2013-02-06 17:22:00,
2013-02-06 12:32:00,32.0,21.0,-100.00,WNW,296,1.0,8.0,63,0.55,,,-99.99,,2013-02-06 17:32:00,
2013-02-06 12:42:00,31.0,21.0,-100.00,ENE,76,1.0,8.0,63,0.00,,,-99.99,,2013-02-06 17:42:00,
2013-02-06 12:52:00,30.0,19.0,-100.00,NNW,348,1.0,8.0,63,0.00,,,-99.99,,2013-02-06 17:52:00,
2013-02-06 13:02:00,30.0,19.0,-100.00,NE,49,1.0,8.0,63,0.00,,,-99.99,,2013-02-06 18:02:00,
2013-02-06 13:12:00,31.0,21.0,-100.00,North,9,0.0,8.0,62,2.28,,,-99.99,,2013-02-06 18:12:00,
2013-02-06 13:23:00,32.0,19.0,-100.00,SE,146,1.0,8.0,59,0.00,,,-99.99,,2013-02-06 18:23:00,
2013-02-06 13:32:00,31.0,19.0,-100.00,WNW,302,1.0,8.0,59,0.00,,,-99.99,,2013-02-06 18:32:00,
2013-02-06 13:42:00,33.0,19.0,-100.00,NNW,345,1.0,8.0,56,0.00,,,-99.99,,2013-02-06 18:42:00,
2013-02-06 13:52:00,32.0,19.0,-100.00,NNE,32,2.0,8.0,58,5.12,,,-99.99,,2013-02-06 18:52:00,
2013-02-06 14:02:00,33.0,21.0,-100.00,NNW,338,1.0,8.0,58,0.00,,,-99.99,,2013-02-06 19:02:00,
2013-02-06 14:11:00,34.0,19.0,-100.00,WNW,297,1.0,8.0,55,1.69,,,-99.99,,2013-02-06 19:11:00,
2013-02-06 14:22:00,34.0,19.0,-100.00,NNE,14,1.0,8.0,55,0.00,,,-99.99,,2013-02-06 19:22:00,
2013-02-06 14:32:00,34.0,19.0,-100.00,North,354,1.0,8.0,53,2.28,,,-99.99,,2013-02-06 19:32:00,
2013-02-06 14:42:00,34.0,19.0,-100.00,NE,42,2.0,8.0,55,5.67,,,-99.99,,2013-02-06 19:42:00,
2013-02-06 14:52:00,34.0,21.0,-100.00,WNW,290,2.0,8.0,54,0.00,,,-99.99,,2013-02-06 19:52:00,
2013-02-06 15:01:00,34.0,19.0,-100.00,NNW,343,1.0,8.0,50,0.00,,,-99.99,,2013-02-06 20:01:00,
2013-02-06 15:11:00,36.0,19.0,-100.00,NW,306,0.0,8.0,50,3.39,,,-99.99,,2013-02-06 20:11:00,
2013-02-06 15:21:00,36.0,19.0,-100.00,West,273,1.0,8.0,50,0.00,,,-99.99,,2013-02-06 20:21:00,
2013-02-06 15:32:00,34.0,19.0,-100.00,North,350,2.0,8.0,51,5.67,,,-99.99,,2013-02-06 20:32:00,
2013-02-06 15:42:00,36.0,21.0,-100.00,NNW,328,1.0,8.0,53,0.00,,,-99.99,,2013-02-06 20:42:00,
2013-02-06 15:52:00,36.0,19.0,-100.00,East,84,1.0,8.0,49,0.00,,,-99.99,,2013-02-06 20:52:00,
2013-02-06 16:02:00,34.0,19.0,-100.00,SE,139,1.0,8.0,51,0.00,,,-99.99,,2013-02-06 21:02:00,
2013-02-06 16:11:00,34.0,19.0,-100.00,East,86,0.0,8.0,51,0.00,,,-99.99,,2013-02-06 21:11:00,
2013-02-06 16:21:00,33.0,19.0,-100.00,North,360,1.0,8.0,53,0.00,,,-99.99,,2013-02-06 21:21:00,
2013-02-06 16:32:00,35.0,19.0,-100.00,SW,218,0.0,8.0,51,0.00,,,-99.99,,2013-02-06 21:32:00,
2013-02-06 16:42:00,35.0,19.0,-100.00,WSW,252,1.0,8.0,51,0.00,,,-99.99,,2013-02-06 21:42:00,
2013-02-06 16:51:00,36.0,19.0,-100.00,NW,323,1.0,8.0,50,0.00,,,-99.99,,2013-02-06 21:51:00,
2013-02-06 17:01:00,35.0,21.0,-100.00,WSW,240,2.0,8.0,54,0.00,,,-99.99,,2013-02-06 22:01:00,
2013-02-06 17:11:00,34.0,19.0,-100.00,WSW,237,1.0,8.0,53,0.00,,,-99.99,,2013-02-06 22:11:00,
2013-02-06 17:22:00,34.0,19.0,-100.00,ESE,105,0.0,8.0,54,0.00,,,-99.99,,2013-02-06 22:22:00,
2013-02-06 17:32:00,34.0,19.0,-100.00,NE,55,0.0,8.0,54,0.00,,,-99.99,,2013-02-06 22:32:00,
2013-02-06 17:42:00,32.0,19.0,-100.00,South,179,0.0,8.0,56,0.00,,,-99.99,,2013-02-06 22:42:00,
2013-02-06 17:52:00,32.0,19.0,-100.00,ENE,59,0.0,8.0,55,0.00,,,-99.99,,2013-02-06 22:52:00,
2013-02-06 18:01:00,32.0,21.0,-100.00,East,84,0.0,8.0,60,0.00,,,-99.99,,2013-02-06 23:01:00,
2013-02-06 18:11:00,31.0,21.0,-100.00,South,180,0.0,8.0,63,0.00,,,-99.99,,2013-02-06 23:11:00,
2013-02-06 18:21:00,28.0,19.0,-100.00,SW,214,0.0,8.0,64,0.00,,,-99.99,,2013-02-06 23:21:00,
2013-02-06 18:32:00,28.0,19.0,-100.00,SW,224,0.0,8.0,66,0.00,,,-99.99,,2013-02-06 23:32:00,
2013-02-06 18:42:00,27.0,19.0,-100.00,ENE,66,0.0,8.0,68,0.00,,,-99.99,,2013-02-06 23:42:00,
2013-02-06 18:52:00,26.0,18.0,-100.00,West,266,0.0,8.0,69,0.00,,,-99.99,,2013-02-06 23:52:00,
2013-02-06 19:02:00,25.0,18.0,-100.00,SW,221,0.0,8.0,72,0.00,,,-99.99,,2013-02-07 00:02:00,
2013-02-06 19:11:00,25.0,19.0,-100.00,WNW,289,0.0,8.0,73,0.00,,,-99.99,,2013-02-07 00:11:00,
2013-02-06 19:22:00,26.0,19.0,-100.00,NNE,16,0.0,8.0,75,0.00,,,-99.99,,2013-02-07 00:22:00,
2013-02-06 19:32:00,23.0,18.0,-100.00,North,355,0.0,8.0,76,0.00,,,-99.99,,2013-02-07 00:32:00,
2013-02-06 19:42:00,25.0,19.0,-100.00,North,0,0.0,8.0,76,0.00,,,-99.99,,2013-02-07 00:42:00,
2013-02-06 19:52:00,22.0,18.0,-100.00,North,351,0.0,8.0,77,0.00,,,-99.99,,2013-02-07 00:52:00,
2013-02-06 20:01:00,23.0,18.0,-100.00,West,268,0.0,8.0,77,0.00,,,-99.99,,2013-02-07 01:01:00,
2013-02-06 20:11:00,21.0,16.0,-100.00,NW,317,0.0,8.0,78,0.00,,,-99.99,,2013-02-07 01:11:00,
2013-02-06 20:21:00,21.0,16.0,-100.00,NE,36,0.0,8.0,78,0.00,,,-99.99,,2013-02-07 01:21:00,
2013-02-06 20:32:00,20.0,16.0,-100.00,WNW,288,0.0,8.0,78,0.00,,,-99.99,,2013-02-07 01:32:00,
2013-02-06 20:42:00,20.0,16.0,-100.00,North,355,0.0,8.0,80,0.00,,,-99.99,,2013-02-07 01:42:00,
2013-02-06 20:52:00,20.0,16.0,-100.00,NE,36,0.0,8.0,80,0.00,,,-99.99,,2013-02-07 01:52:00,
2013-02-06 21:01:00,20.0,16.0,-100.00,NNE,24,0.0,8.0,81,0.00,,,-99.99,,2013-02-07 02:01:00,
2013-02-06 21:12:00,19.0,16.0,-100.00,North,360,0.0,8.0,81,0.00,,,-99.99,,2013-02-07 02:12:00,
2013-02-06 21:21:00,18.0,14.0,-100.00,NE,39,0.0,8.0,81,0.00,,,-99.99,,2013-02-07 02:21:00,
2013-02-06 21:32:00,17.0,14.0,-100.00,NNE,12,0.0,8.0,84,0.00,,,-99.99,,2013-02-07 02:32:00,
2013-02-06 21:42:00,17.0,14.0,-100.00,NNE,12,0.0,8.0,84,0.00,,,-99.99,,2013-02-07 02:42:00,
2013-02-06 21:51:00,17.0,14.0,-100.00,NNE,12,0.0,8.0,84,0.00,,,-99.99,,2013-02-07 02:51:00,
2013-02-06 22:02:00,18.0,16.0,-100.00,NE,42,1.0,8.0,85,0.00,,,-99.99,,2013-02-07 03:02:00,
2013-02-06 22:11:00,18.0,16.0,-100.00,NE,45,1.0,8.0,85,0.00,,,-99.99,,2013-02-07 03:11:00,
2013-02-06 22:21:00,18.0,16.0,-100.00,NNE,25,0.0,8.0,86,0.00,,,-99.99,,2013-02-07 03:21:00,
2013-02-06 22:32:00,18.0,16.0,-100.00,NE,40,0.0,8.0,86,0.00,,,-99.99,,2013-02-07 03:32:00,
2013-02-06 22:42:00,18.0,16.0,-100.00,NE,45,1.0,8.0,86,0.00,,,-99.99,,2013-02-07 03:42:00,
2013-02-06 22:52:00,18.0,16.0,-100.00,NNE,33,1.0,8.0,88,0.00,,,-99.99,,2013-02-07 03:52:00,
2013-02-06 23:01:00,17.0,16.0,-100.00,NE,53,1.0,8.0,88,0.00,,,-99.99,,2013-02-07 04:01:00,
2013-02-06 23:11:00,17.0,16.0,-100.00,NNE,19,0.0,8.0,88,0.00,,,-99.99,,2013-02-07 04:11:00,
2013-02-06 23:22:00,17.0,16.0,-100.00,NE,38,0.0,8.0,88,0.00,,,-99.99,,2013-02-07 04:22:00,
2013-02-06 23:32:00,17.0,14.0,-100.00,NE,43,1.0,8.0,88,0.00,,,-99.99,,2013-02-07 04:32:00,
2013-02-06 23:42:00,17.0,14.0,-100.00,SSW,193,0.0,8.0,88,0.00,,,-99.99,,2013-02-07 04:42:00,
2013-02-06 23:53:00,16.0,14.0,-100.00,NNE,18,0.0,8.0,88,0.00,,,-99.99,,2013-02-07 04:53:00,